sat.trackr.live / text

‹ back to catalog

STARLINK-31271

NORAD 58827 · 2024-017B

PAYLOAD ACTIVE UNKNOWN

§ Identity

Operator
Country
US
Launch date
2024-01-24
Launch site
AFWTR
Launch vehicle
Mass (kg)
RCS (m²)

Purposes: comms

External: N2YO · Heavens-Above · Gunter

§ Orbital elements

Epoch: 2026-09-20T13:41:21.309792Z

Period
93.85 min
Inclination
53.1594°
Eccentricity
0.0001051
Mean motion
15.34401581 rev/d
Perigee alt
462.0 km
Apogee alt
463.4 km
Semi-major
6,840.8 km
B*
7.0863e-4
RAAN
17.6871°
Arg perigee
84.6917°
Mean anomaly
275.4206°
Rev number
14,991

§ Raw data

STARLINK-312711 58827U 24017B   26263.57038553  .00023643  00000+0  70863-3 0  99932 58827  53.1594  17.6871 0001051  84.6917 275.4206 15.34401581149913

JSON: /api/v1/satellites/58827 · /tle

For live sub-satellite position, see the globe view (requires WebGL).

§ Visibility from observer

Set your observer location to see the next 7 days of passes ≥ 10°. The values pass through the URL so the page stays shareable.

No JS? Fill the form by hand. The geolocation button needs JavaScript.